Hourly Data Report for August 10, 2022

LONDON CS
ONTARIO
Current Station Operator: ECCC - MSC

43°02'00.000" N
81°09'00.000" W
278.00 m
6144478
71622
WSN

Download Data

Hourly Data (August 2022)
Hourly Data Report for August 10, 2022
TIME
LST
Temp Definition
°C
Dew Point Definition
°C
Rel Hum Definition
%
Precip. Amount Definition
mm

Wind Dir Definition
10's deg

Wind Spd Definition
km/h
Visibility Definition
km
Stn Press Definition
kPa
Hmdx Definition


Wind Chill Definition


Weather Definition


00:00 15.8 14.2 90 0.0       98.72     LegendNANA
01:00 15.1 14.0 93 0.0       98.72     LegendNANA
02:00 14.8 13.7 93 0.0       98.71     LegendNANA
03:00 14.4 13.2 93 0.0       98.71     LegendNANA
04:00 14.3 13.3 94 0.0       98.71     LegendNANA
05:00 14.0 13.3 96 0.0       98.71     LegendNANA
06:00 13.5 12.9 96 0.0       98.78     LegendNANA
07:00 16.3 14.3 88 0.0       98.84     LegendNANA
08:00 18.0 13.2 74 0.0       98.88     LegendNANA
09:00 19.4 10.9 58 0.0       98.87     LegendNANA
10:00 20.7 13.2 62 0.0       98.86     LegendNANA
11:00 22.0 14.2 62 0.0       98.86 25   LegendNANA
12:00 23.2 14.7 59 0.0       98.80 27   LegendNANA
13:00 24.3 14.9 56 0.0       98.73 28   LegendNANA
14:00 24.7 13.7 51 0.0       98.66 28   LegendNANA
15:00 25.8 14.2 49 0.0       98.60 29   LegendNANA
16:00 26.1 15.2 51 0.0       98.55 30   LegendNANA
17:00 25.2 14.2 50 0.0       98.52 29   LegendNANA
18:00 25.1 14.7 53 0.0       98.47 29   LegendNANA
19:00 23.4 15.1 59 0.0       98.44 27   LegendNANA
20:00 21.4 15.8 71 0.0       98.49 26   LegendNANA
21:00 20.4 16.2 77 0.0       98.53 25   LegendNANA
22:00 20.1 16.3 79 0.0       98.51 25   LegendNANA
23:00 20.1 16.7 81 0.0       98.49 25   LegendNANA

Notes on Data Quality.

Legend

  • E = Estimated
  • M = Missing
  • NA = Not Available*
  • [empty] = Indicates an unobserved value
Date modified: